Year,Month,Day,Hour,Minute,Value (Times are PST for windgust in km/hr)
2013,08,17,00,01,1.60
2013,08,17,00,02,1.60
2013,08,17,00,03,1.60
2013,08,17,00,04,1.60
2013,08,17,00,05,1.60
2013,08,17,00,06,1.60
2013,08,17,00,07,3.20
2013,08,17,00,08,1.60
2013,08,17,00,09,1.60
2013,08,17,00,10,1.60
2013,08,17,00,11,3.20
2013,08,17,00,12,3.20
2013,08,17,00,13,1.60
2013,08,17,00,14,1.60
2013,08,17,00,17,3.20
2013,08,17,00,18,1.60
2013,08,17,00,19,1.60
2013,08,17,00,20,1.60
2013,08,17,00,21,3.20
2013,08,17,00,22,1.60
2013,08,17,00,23,1.60
2013,08,17,00,24,1.60
2013,08,17,00,25,4.80
2013,08,17,00,26,4.80
2013,08,17,00,27,4.80
2013,08,17,00,28,4.80
2013,08,17,00,29,4.80
2013,08,17,00,30,4.80
2013,08,17,00,31,4.80
2013,08,17,00,32,4.80
2013,08,17,00,33,4.80
2013,08,17,00,34,3.20
2013,08,17,00,35,3.20
2013,08,17,00,36,3.20
2013,08,17,00,37,1.60
2013,08,17,00,39,4.80
2013,08,17,00,40,4.80
2013,08,17,00,41,4.80
2013,08,17,00,42,4.80
2013,08,17,00,43,3.20
2013,08,17,00,44,3.20
2013,08,17,00,45,3.20
2013,08,17,00,46,3.20
2013,08,17,00,47,3.20
2013,08,17,00,48,3.20
2013,08,17,00,49,3.20
2013,08,17,00,50,3.20
2013,08,17,00,51,1.60
2013,08,17,00,52,1.60
2013,08,17,00,53,1.60
2013,08,17,00,54,3.20
2013,08,17,00,55,4.80
2013,08,17,00,56,4.80
2013,08,17,00,57,4.80
2013,08,17,00,58,3.20
2013,08,17,00,59,1.60
2013,08,17,01,01,1.60
2013,08,17,01,02,1.60
2013,08,17,01,03,3.20
2013,08,17,01,04,3.20
2013,08,17,01,05,4.80
2013,08,17,01,06,3.20
2013,08,17,01,07,3.20
2013,08,17,01,08,3.20
2013,08,17,01,09,3.20
2013,08,17,01,10,3.20
2013,08,17,01,11,1.60
2013,08,17,01,12,1.60
2013,08,17,01,15,3.20
2013,08,17,01,16,3.20
2013,08,17,01,17,4.80
2013,08,17,01,18,4.80
2013,08,17,01,19,3.20
2013,08,17,01,20,4.80
2013,08,17,01,21,4.80
2013,08,17,01,22,4.80
2013,08,17,01,23,1.60
2013,08,17,01,24,1.60
2013,08,17,01,25,1.60
2013,08,17,01,27,1.60
2013,08,17,01,28,4.80
2013,08,17,01,29,4.80
2013,08,17,01,30,4.80
2013,08,17,01,31,4.80
2013,08,17,01,32,4.80
2013,08,17,01,33,4.80
2013,08,17,01,34,3.20
2013,08,17,01,35,3.20
2013,08,17,01,36,1.60
2013,08,17,01,37,3.20
2013,08,17,01,38,3.20
2013,08,17,01,39,1.60
2013,08,17,01,40,3.20
2013,08,17,01,41,3.20
2013,08,17,01,42,1.60
2013,08,17,01,49,3.20
2013,08,17,01,50,3.20
2013,08,17,01,51,3.20
2013,08,17,01,52,3.20
2013,08,17,01,53,3.20
2013,08,17,01,54,3.20
2013,08,17,01,55,4.80
2013,08,17,01,56,3.20
2013,08,17,01,57,3.20
2013,08,17,01,58,3.20
2013,08,17,01,59,3.20
2013,08,17,02,00,3.20
2013,08,17,02,01,3.20
2013,08,17,02,02,3.20
2013,08,17,02,03,1.60
2013,08,17,02,04,3.20
2013,08,17,02,05,3.20
2013,08,17,02,06,4.80
2013,08,17,02,07,4.80
2013,08,17,02,08,4.80
2013,08,17,02,09,4.80
2013,08,17,02,10,3.20
2013,08,17,02,11,3.20
2013,08,17,02,12,1.60
2013,08,17,02,13,1.60
2013,08,17,02,14,1.60
2013,08,17,02,15,3.20
2013,08,17,02,16,3.20
2013,08,17,02,17,3.20
2013,08,17,02,18,1.60
2013,08,17,02,19,1.60
2013,08,17,02,25,1.60
2013,08,17,02,26,1.60
2013,08,17,02,27,3.20
2013,08,17,02,28,3.20
2013,08,17,02,29,3.20
2013,08,17,02,30,1.60
2013,08,17,02,32,1.60
2013,08,17,02,35,1.60
2013,08,17,02,37,1.60
2013,08,17,02,43,3.20
2013,08,17,02,44,1.60
2013,08,17,02,45,1.60
2013,08,17,02,46,3.20
2013,08,17,02,47,3.20
2013,08,17,02,48,1.60
2013,08,17,02,49,1.60
2013,08,17,02,50,1.60
2013,08,17,02,52,1.60
2013,08,17,02,53,1.60
2013,08,17,02,54,3.20
2013,08,17,02,55,3.20
2013,08,17,02,56,1.60
2013,08,17,02,57,1.60
2013,08,17,02,58,1.60
2013,08,17,02,59,1.60
2013,08,17,03,00,1.60
2013,08,17,03,01,1.60
2013,08,17,03,02,1.60
2013,08,17,03,06,1.60
2013,08,17,03,07,1.60
2013,08,17,03,08,1.60
2013,08,17,03,09,3.20
2013,08,17,03,10,3.20
2013,08,17,03,11,3.20
2013,08,17,03,12,3.20
2013,08,17,03,13,3.20
2013,08,17,03,14,1.60
2013,08,17,03,15,1.60
2013,08,17,03,16,1.60
2013,08,17,03,17,3.20
2013,08,17,03,18,4.80
2013,08,17,03,19,3.20
2013,08,17,03,20,3.20
2013,08,17,03,21,3.20
2013,08,17,03,22,3.20
2013,08,17,03,24,1.60
2013,08,17,03,25,1.60
2013,08,17,03,26,1.60
2013,08,17,03,27,1.60
2013,08,17,03,28,1.60
2013,08,17,03,30,3.20
2013,08,17,03,31,3.20
2013,08,17,03,32,3.20
2013,08,17,03,33,4.80
2013,08,17,03,34,4.80
2013,08,17,03,35,3.20
2013,08,17,03,36,1.60
2013,08,17,03,44,1.60
2013,08,17,03,45,4.80
2013,08,17,03,46,6.40
2013,08,17,03,47,6.40
2013,08,17,03,48,3.20
2013,08,17,03,49,1.60
2013,08,17,03,51,4.80
2013,08,17,03,52,3.20
2013,08,17,03,53,1.60
2013,08,17,03,54,6.40
2013,08,17,03,55,6.40
2013,08,17,03,56,6.40
2013,08,17,03,57,4.80
2013,08,17,03,58,1.60
2013,08,17,04,00,1.60
2013,08,17,04,01,3.20
2013,08,17,04,02,3.20
2013,08,17,04,03,4.80
2013,08,17,04,04,6.40
2013,08,17,04,05,8.10
2013,08,17,04,06,3.20
2013,08,17,04,07,1.60
2013,08,17,04,08,1.60
2013,08,17,04,09,6.40
2013,08,17,04,10,6.40
2013,08,17,04,11,3.20
2013,08,17,04,12,3.20
2013,08,17,04,13,3.20
2013,08,17,04,14,6.40
2013,08,17,04,15,4.80
2013,08,17,04,16,3.20
2013,08,17,04,18,1.60
2013,08,17,04,20,4.80
2013,08,17,04,21,6.40
2013,08,17,04,22,6.40
2013,08,17,04,23,6.40
2013,08,17,04,24,1.60
2013,08,17,04,25,3.20
2013,08,17,04,26,6.40
2013,08,17,04,27,6.40
2013,08,17,04,28,3.20
2013,08,17,04,29,1.60
2013,08,17,04,30,1.60
2013,08,17,04,31,6.40
2013,08,17,04,32,8.10
2013,08,17,04,33,8.10
2013,08,17,04,34,4.80
2013,08,17,04,35,4.80
2013,08,17,04,36,4.80
2013,08,17,04,37,3.20
2013,08,17,04,38,3.20
2013,08,17,04,39,4.80
2013,08,17,04,40,1.60
2013,08,17,04,41,4.80
2013,08,17,04,42,4.80
2013,08,17,04,43,4.80
2013,08,17,04,44,4.80
2013,08,17,04,45,4.80
2013,08,17,04,46,4.80
2013,08,17,04,47,3.20
2013,08,17,04,48,3.20
2013,08,17,04,49,3.20
2013,08,17,04,50,3.20
2013,08,17,04,51,4.80
2013,08,17,04,52,4.80
2013,08,17,04,53,3.20
2013,08,17,04,54,4.80
2013,08,17,04,55,4.80
2013,08,17,04,56,4.80
2013,08,17,04,57,4.80
2013,08,17,04,58,4.80
2013,08,17,04,59,3.20
2013,08,17,05,00,1.60
2013,08,17,05,01,1.60
2013,08,17,05,02,1.60
2013,08,17,05,03,4.80
2013,08,17,05,04,4.80
2013,08,17,05,05,3.20
2013,08,17,05,06,1.60
2013,08,17,05,07,4.80
2013,08,17,05,08,4.80
2013,08,17,05,09,3.20
2013,08,17,05,10,1.60
2013,08,17,05,11,3.20
2013,08,17,05,12,1.60
2013,08,17,05,13,3.20
2013,08,17,05,14,4.80
2013,08,17,05,15,4.80
2013,08,17,05,16,3.20
2013,08,17,05,18,3.20
2013,08,17,05,19,3.20
2013,08,17,05,20,1.60
2013,08,17,05,21,4.80
2013,08,17,05,22,4.80
2013,08,17,05,23,1.60
2013,08,17,05,24,4.80
2013,08,17,05,25,4.80
2013,08,17,05,26,3.20
2013,08,17,05,27,4.80
2013,08,17,05,28,4.80
2013,08,17,05,29,4.80
2013,08,17,05,30,4.80
2013,08,17,05,31,3.20
2013,08,17,05,32,1.60
2013,08,17,05,33,3.20
2013,08,17,05,34,3.20
2013,08,17,05,35,3.20
2013,08,17,05,36,1.60
2013,08,17,05,38,1.60
2013,08,17,05,39,3.20
2013,08,17,05,40,3.20
2013,08,17,05,41,3.20
2013,08,17,05,42,1.60
2013,08,17,05,43,1.60
2013,08,17,05,44,1.60
2013,08,17,05,45,3.20
2013,08,17,05,46,4.80
2013,08,17,05,47,4.80
2013,08,17,05,48,3.20
2013,08,17,05,49,1.60
2013,08,17,05,50,3.20
2013,08,17,05,51,4.80
2013,08,17,05,52,3.20
2013,08,17,05,53,3.20
2013,08,17,05,54,1.60
2013,08,17,05,56,1.60
2013,08,17,05,57,3.20
2013,08,17,05,58,3.20
2013,08,17,05,59,1.60
2013,08,17,06,00,1.60
2013,08,17,06,01,1.60
2013,08,17,06,02,1.60
2013,08,17,06,03,3.20
2013,08,17,06,04,1.60
2013,08,17,06,05,3.20
2013,08,17,06,06,3.20
2013,08,17,06,07,3.20
2013,08,17,06,09,3.20
2013,08,17,06,10,3.20
2013,08,17,06,11,1.60
2013,08,17,06,12,1.60
2013,08,17,06,13,1.60
2013,08,17,06,14,4.80
2013,08,17,06,15,11.30
2013,08,17,06,16,12.90
2013,08,17,06,17,11.30
2013,08,17,06,18,8.10
2013,08,17,06,19,8.10
2013,08,17,06,20,8.10
2013,08,17,06,21,6.40
2013,08,17,06,22,9.60
2013,08,17,06,23,9.60
2013,08,17,06,24,11.30
2013,08,17,06,25,9.60
2013,08,17,06,26,9.60
2013,08,17,06,27,11.30
2013,08,17,06,28,12.90
2013,08,17,06,29,11.30
2013,08,17,06,30,4.80
2013,08,17,06,31,4.80
2013,08,17,06,32,6.40
2013,08,17,06,33,8.10
2013,08,17,06,34,11.30
2013,08,17,06,35,8.10
2013,08,17,06,36,9.60
2013,08,17,06,37,9.60
2013,08,17,06,38,6.40
2013,08,17,06,39,4.80
2013,08,17,06,40,9.60
2013,08,17,06,41,9.60
2013,08,17,06,42,8.10
2013,08,17,06,43,8.10
2013,08,17,06,44,8.10
2013,08,17,06,45,8.10
2013,08,17,06,46,11.30
2013,08,17,06,47,9.60
2013,08,17,06,48,9.60
2013,08,17,06,49,8.10
2013,08,17,06,50,8.10
2013,08,17,06,51,4.80
2013,08,17,06,52,4.80
2013,08,17,06,53,4.80
2013,08,17,06,54,6.40
2013,08,17,06,55,6.40
2013,08,17,06,56,11.30
2013,08,17,06,57,8.10
2013,08,17,06,58,8.10
2013,08,17,06,59,8.10
2013,08,17,07,00,8.10
2013,08,17,07,01,4.80
2013,08,17,07,02,8.10
2013,08,17,07,03,6.40
2013,08,17,07,04,6.40
2013,08,17,07,05,4.80
2013,08,17,07,06,6.40
2013,08,17,07,07,6.40
2013,08,17,07,08,3.20
2013,08,17,07,09,6.40
2013,08,17,07,10,6.40
2013,08,17,07,11,3.20
2013,08,17,07,12,4.80
2013,08,17,07,13,6.40
2013,08,17,07,14,6.40
2013,08,17,07,15,8.10
2013,08,17,07,16,6.40
2013,08,17,07,17,6.40
2013,08,17,07,18,4.80
2013,08,17,07,19,3.20
2013,08,17,07,20,3.20
2013,08,17,07,21,4.80
2013,08,17,07,22,3.20
2013,08,17,07,23,4.80
2013,08,17,07,24,4.80
2013,08,17,07,25,3.20
2013,08,17,07,26,4.80
2013,08,17,07,27,3.20
2013,08,17,07,28,1.60
2013,08,17,07,29,1.60
2013,08,17,07,30,1.60
2013,08,17,07,31,3.20
2013,08,17,07,32,1.60
2013,08,17,07,34,1.60
2013,08,17,07,35,1.60
2013,08,17,07,36,1.60
2013,08,17,07,37,1.60
2013,08,17,07,38,3.20
2013,08,17,07,39,3.20
2013,08,17,07,43,1.60
2013,08,17,07,44,1.60
2013,08,17,07,45,1.60
2013,08,17,07,46,1.60
2013,08,17,07,52,1.60
2013,08,17,08,02,1.60
2013,08,17,08,04,1.60
2013,08,17,08,05,1.60
2013,08,17,08,06,3.20
2013,08,17,08,07,3.20
2013,08,17,08,08,1.60
2013,08,17,08,09,3.20
2013,08,17,08,10,1.60
2013,08,17,08,11,1.60
2013,08,17,08,12,3.20
2013,08,17,08,13,3.20
2013,08,17,08,14,3.20
2013,08,17,08,15,3.20
2013,08,17,08,16,3.20
2013,08,17,08,17,1.60
2013,08,17,08,18,1.60
2013,08,17,08,19,4.80
2013,08,17,08,20,8.10
2013,08,17,08,21,6.40
2013,08,17,08,22,6.40
2013,08,17,08,23,6.40
2013,08,17,08,24,4.80
2013,08,17,08,25,3.20
2013,08,17,08,26,6.40
2013,08,17,08,27,4.80
2013,08,17,08,28,4.80
2013,08,17,08,29,8.10
2013,08,17,08,30,6.40
2013,08,17,08,31,8.10
2013,08,17,08,32,4.80
2013,08,17,08,33,6.40
2013,08,17,08,34,8.10
2013,08,17,08,35,4.80
2013,08,17,08,36,8.10
2013,08,17,08,37,6.40
2013,08,17,08,38,8.10
2013,08,17,08,39,8.10
2013,08,17,08,40,14.50
2013,08,17,08,41,9.60
2013,08,17,08,42,11.30
2013,08,17,08,43,8.10
2013,08,17,08,44,9.60
2013,08,17,08,45,16.10
2013,08,17,08,46,19.30
2013,08,17,08,47,16.10
2013,08,17,08,48,14.50
2013,08,17,08,49,14.50
2013,08,17,08,50,9.60
2013,08,17,08,51,9.60
2013,08,17,08,52,8.10
2013,08,17,08,53,6.40
2013,08,17,08,54,4.80
2013,08,17,08,55,4.80
2013,08,17,08,56,6.40
2013,08,17,08,57,6.40
2013,08,17,08,58,16.10
2013,08,17,08,59,8.10
2013,08,17,09,00,8.10
2013,08,17,09,01,8.10
2013,08,17,09,02,9.60
2013,08,17,09,03,9.60
2013,08,17,09,04,9.60
2013,08,17,09,05,11.30
2013,08,17,09,06,17.70
2013,08,17,09,07,17.70
2013,08,17,09,08,6.40
2013,08,17,09,09,3.20
2013,08,17,09,10,22.50
2013,08,17,09,11,22.50
2013,08,17,09,12,14.50
2013,08,17,09,13,11.30
2013,08,17,09,14,17.70
2013,08,17,09,15,6.40
2013,08,17,09,16,11.30
2013,08,17,09,17,16.10
2013,08,17,09,18,6.40
2013,08,17,09,19,9.60
2013,08,17,09,20,19.30
2013,08,17,09,21,16.10
2013,08,17,09,22,20.90
2013,08,17,09,23,16.10
2013,08,17,09,24,16.10
2013,08,17,09,25,11.30
2013,08,17,09,26,11.30
2013,08,17,09,27,14.50
2013,08,17,09,28,11.30
2013,08,17,09,29,12.90
2013,08,17,09,30,11.30
2013,08,17,09,31,14.50
2013,08,17,09,32,9.60
2013,08,17,09,33,22.50
2013,08,17,09,34,19.30
2013,08,17,09,35,14.50
2013,08,17,09,36,9.60
2013,08,17,09,37,14.50
2013,08,17,09,38,11.30
2013,08,17,09,39,16.10
2013,08,17,09,40,17.70
2013,08,17,09,41,11.30
2013,08,17,09,42,12.90
2013,08,17,09,43,11.30
2013,08,17,09,44,4.80
2013,08,17,09,45,11.30
2013,08,17,09,46,9.60
2013,08,17,09,47,16.10
2013,08,17,09,48,16.10
2013,08,17,09,49,14.50
2013,08,17,09,50,16.10
2013,08,17,09,51,14.50
2013,08,17,09,52,9.60
2013,08,17,09,53,11.30
2013,08,17,09,54,14.50
2013,08,17,09,55,17.70
2013,08,17,09,56,9.60
2013,08,17,09,57,17.70
2013,08,17,09,58,12.90
2013,08,17,09,59,4.80
2013,08,17,10,00,11.30
2013,08,17,10,01,20.90
2013,08,17,10,02,20.90
2013,08,17,10,03,17.70
2013,08,17,10,04,16.10
2013,08,17,10,05,9.60
2013,08,17,10,06,16.10
2013,08,17,10,07,17.70
2013,08,17,10,08,19.30
2013,08,17,10,09,9.60
2013,08,17,10,10,17.70
2013,08,17,10,11,20.90
2013,08,17,10,12,20.90
2013,08,17,10,13,14.50
2013,08,17,10,14,9.60
2013,08,17,10,15,6.40
2013,08,17,10,16,6.40
2013,08,17,10,17,24.20
2013,08,17,10,18,24.20
2013,08,17,10,19,25.70
2013,08,17,10,20,20.90
2013,08,17,10,21,12.90
2013,08,17,10,22,12.90
2013,08,17,10,23,24.20
2013,08,17,10,24,27.40
2013,08,17,10,25,24.20
2013,08,17,10,26,24.20
2013,08,17,10,27,17.70
2013,08,17,10,28,11.30
2013,08,17,10,29,19.30
2013,08,17,10,30,24.20
2013,08,17,10,31,17.70
2013,08,17,10,32,20.90
2013,08,17,10,33,17.70
2013,08,17,10,34,22.50
2013,08,17,10,35,25.70
2013,08,17,10,36,17.70
2013,08,17,10,37,20.90
2013,08,17,10,38,19.30
2013,08,17,10,39,16.10
2013,08,17,10,40,11.30
2013,08,17,10,41,16.10
2013,08,17,10,42,19.30
2013,08,17,10,43,16.10
2013,08,17,10,44,17.70
2013,08,17,10,45,17.70
2013,08,17,10,46,25.70
2013,08,17,10,47,16.10
2013,08,17,10,48,22.50
2013,08,17,10,49,22.50
2013,08,17,10,50,20.90
2013,08,17,10,51,27.40
2013,08,17,10,52,19.30
2013,08,17,10,53,19.30
2013,08,17,10,54,16.10
2013,08,17,10,55,25.70
2013,08,17,10,56,24.20
2013,08,17,10,57,14.50
2013,08,17,10,58,9.60
2013,08,17,10,59,11.30
2013,08,17,11,00,16.10
2013,08,17,11,01,16.10
2013,08,17,11,02,24.20
2013,08,17,11,03,16.10
2013,08,17,11,04,17.70
2013,08,17,11,05,16.10
2013,08,17,11,06,20.90
2013,08,17,11,07,16.10
2013,08,17,11,08,16.10
2013,08,17,11,09,11.30
2013,08,17,11,10,22.50
2013,08,17,11,11,20.90
2013,08,17,11,12,20.90
2013,08,17,11,13,19.30
2013,08,17,11,14,25.70
2013,08,17,11,15,24.20
2013,08,17,11,16,25.70
2013,08,17,11,17,25.70
2013,08,17,11,18,22.50
2013,08,17,11,19,22.50
2013,08,17,11,20,20.90
2013,08,17,11,21,24.20
2013,08,17,11,22,19.30
2013,08,17,11,23,17.70
2013,08,17,11,24,17.70
2013,08,17,11,25,17.70
2013,08,17,11,26,14.50
2013,08,17,11,27,16.10
2013,08,17,11,28,11.30
2013,08,17,11,29,8.10
2013,08,17,11,30,19.30
2013,08,17,11,31,14.50
2013,08,17,11,32,12.90
2013,08,17,11,33,9.60
2013,08,17,11,34,16.10
2013,08,17,11,35,14.50
2013,08,17,11,36,19.30
2013,08,17,11,37,19.30
2013,08,17,11,38,11.30
2013,08,17,11,39,9.60
2013,08,17,11,40,11.30
2013,08,17,11,41,1.60
2013,08,17,11,42,8.10
2013,08,17,11,43,11.30
2013,08,17,11,44,11.30
2013,08,17,11,45,11.30
2013,08,17,11,46,14.50
2013,08,17,11,47,14.50
2013,08,17,11,48,19.30
2013,08,17,11,49,20.90
2013,08,17,11,50,17.70
2013,08,17,11,51,20.90
2013,08,17,11,52,20.90
2013,08,17,11,53,17.70
2013,08,17,11,54,19.30
2013,08,17,11,55,17.70
2013,08,17,11,56,17.70
2013,08,17,11,57,19.30
2013,08,17,11,58,19.30
2013,08,17,11,59,17.70
2013,08,17,12,00,19.30
2013,08,17,12,01,20.90
2013,08,17,12,02,20.90
2013,08,17,12,03,19.30
2013,08,17,12,04,19.30
2013,08,17,12,05,14.50
2013,08,17,12,06,11.30
2013,08,17,12,07,14.50
2013,08,17,12,08,14.50
2013,08,17,12,09,11.30
2013,08,17,12,10,11.30
2013,08,17,12,11,20.90
2013,08,17,12,12,20.90
2013,08,17,12,13,8.10
2013,08,17,12,14,11.30
2013,08,17,12,15,14.50
2013,08,17,12,16,14.50
2013,08,17,12,17,19.30
2013,08,17,12,18,17.70
2013,08,17,12,19,8.10
2013,08,17,12,20,9.60
2013,08,17,12,21,9.60
2013,08,17,12,22,17.70
2013,08,17,12,23,17.70
2013,08,17,12,24,17.70
2013,08,17,12,25,14.50
2013,08,17,12,26,17.70
2013,08,17,12,27,11.30
2013,08,17,12,28,9.60
2013,08,17,12,29,11.30
2013,08,17,12,30,17.70
2013,08,17,12,31,14.50
2013,08,17,12,32,17.70
2013,08,17,12,33,11.30
2013,08,17,12,34,12.90
2013,08,17,12,35,14.50
2013,08,17,12,36,12.90
2013,08,17,12,37,17.70
2013,08,17,12,38,20.90
2013,08,17,12,39,20.90
2013,08,17,12,40,11.30
2013,08,17,12,41,9.60
2013,08,17,12,42,16.10
2013,08,17,12,43,17.70
2013,08,17,12,44,11.30
2013,08,17,12,45,12.90
2013,08,17,12,46,16.10
2013,08,17,12,47,19.30
2013,08,17,12,48,27.40
2013,08,17,12,49,20.90
2013,08,17,12,50,16.10
2013,08,17,12,51,25.70
2013,08,17,12,52,19.30
2013,08,17,12,53,11.30
2013,08,17,12,54,8.10
2013,08,17,12,55,17.70
2013,08,17,12,56,17.70
2013,08,17,12,57,24.20
2013,08,17,12,58,25.70
2013,08,17,12,59,19.30
2013,08,17,13,00,17.70
2013,08,17,13,01,24.20
2013,08,17,13,02,24.20
2013,08,17,13,03,16.10
2013,08,17,13,04,19.30
2013,08,17,13,05,19.30
2013,08,17,13,06,19.30
2013,08,17,13,07,17.70
2013,08,17,13,08,27.40
2013,08,17,13,09,24.20
2013,08,17,13,10,19.30
2013,08,17,13,11,30.60
2013,08,17,13,12,27.40
2013,08,17,13,13,29.00
2013,08,17,13,14,29.00
2013,08,17,13,15,27.40
2013,08,17,13,16,22.50
2013,08,17,13,17,20.90
2013,08,17,13,18,20.90
2013,08,17,13,19,17.70
2013,08,17,13,20,9.60
2013,08,17,13,21,14.50
2013,08,17,13,22,19.30
2013,08,17,13,23,24.20
2013,08,17,13,24,17.70
2013,08,17,13,25,17.70
2013,08,17,13,26,19.30
2013,08,17,13,27,16.10
2013,08,17,13,28,11.30
2013,08,17,13,29,14.50
2013,08,17,13,30,11.30
2013,08,17,13,31,8.10
2013,08,17,13,32,8.10
2013,08,17,13,33,3.20
2013,08,17,13,34,8.10
2013,08,17,13,35,3.20
2013,08,17,13,36,6.40
2013,08,17,13,37,17.70
2013,08,17,13,38,8.10
2013,08,17,13,39,9.60
2013,08,17,13,40,14.50
2013,08,17,13,41,4.80
2013,08,17,13,42,4.80
2013,08,17,13,43,9.60
2013,08,17,13,44,8.10
2013,08,17,13,45,17.70
2013,08,17,13,46,16.10
2013,08,17,13,47,16.10
2013,08,17,13,48,20.90
2013,08,17,13,49,24.20
2013,08,17,13,50,24.20
2013,08,17,13,51,6.40
2013,08,17,13,52,4.80
2013,08,17,13,53,16.10
2013,08,17,13,54,27.40
2013,08,17,13,55,17.70
2013,08,17,13,56,16.10
2013,08,17,13,57,22.50
2013,08,17,13,58,19.30
2013,08,17,13,59,9.60
2013,08,17,14,00,11.30
2013,08,17,14,01,8.10
2013,08,17,14,02,9.60
2013,08,17,14,03,20.90
2013,08,17,14,04,22.50
2013,08,17,14,05,19.30
2013,08,17,14,06,22.50
2013,08,17,14,07,22.50
2013,08,17,14,08,22.50
2013,08,17,14,09,22.50
2013,08,17,14,10,19.30
2013,08,17,14,11,19.30
2013,08,17,14,12,19.30
2013,08,17,14,13,16.10
2013,08,17,14,14,14.50
2013,08,17,14,15,11.30
2013,08,17,14,16,16.10
2013,08,17,14,17,17.70
2013,08,17,14,18,19.30
2013,08,17,14,19,22.50
2013,08,17,14,20,22.50
2013,08,17,14,21,19.30
2013,08,17,14,22,20.90
2013,08,17,14,23,22.50
2013,08,17,14,24,19.30
2013,08,17,14,25,19.30
2013,08,17,14,26,16.10
2013,08,17,14,27,16.10
2013,08,17,14,28,14.50
2013,08,17,14,29,16.10
2013,08,17,14,30,11.30
2013,08,17,14,31,11.30
2013,08,17,14,32,17.70
2013,08,17,14,33,9.60
2013,08,17,14,34,17.70
2013,08,17,14,35,19.30
2013,08,17,14,36,6.40
2013,08,17,14,37,14.50
2013,08,17,14,38,14.50
2013,08,17,14,39,9.60
2013,08,17,14,40,12.90
2013,08,17,14,41,12.90
2013,08,17,14,42,25.70
2013,08,17,14,43,19.30
2013,08,17,14,44,16.10
2013,08,17,14,45,17.70
2013,08,17,14,46,24.20
2013,08,17,14,47,24.20
2013,08,17,14,48,9.60
2013,08,17,14,49,9.60
2013,08,17,14,50,20.90
2013,08,17,14,51,20.90
2013,08,17,14,52,16.10
2013,08,17,14,53,16.10
2013,08,17,14,54,24.20
2013,08,17,14,55,20.90
2013,08,17,14,56,19.30
2013,08,17,14,57,19.30
2013,08,17,14,58,12.90
2013,08,17,14,59,11.30
2013,08,17,15,00,17.70
2013,08,17,15,01,16.10
2013,08,17,15,02,6.40
2013,08,17,15,03,9.60
2013,08,17,15,04,14.50
2013,08,17,15,05,25.70
2013,08,17,15,06,25.70
2013,08,17,15,07,24.20
2013,08,17,15,08,24.20
2013,08,17,15,09,29.00
2013,08,17,15,10,22.50
2013,08,17,15,11,19.30
2013,08,17,15,12,14.50
2013,08,17,15,13,17.70
2013,08,17,15,14,17.70
2013,08,17,15,15,8.10
2013,08,17,15,16,17.70
2013,08,17,15,17,16.10
2013,08,17,15,18,12.90
2013,08,17,15,19,6.40
2013,08,17,15,20,16.10
2013,08,17,15,21,17.70
2013,08,17,15,22,16.10
2013,08,17,15,23,16.10
2013,08,17,15,24,11.30
2013,08,17,15,25,9.60
2013,08,17,15,26,16.10
2013,08,17,15,27,25.70
2013,08,17,15,28,25.70
2013,08,17,15,29,22.50
2013,08,17,15,30,14.50
2013,08,17,15,31,14.50
2013,08,17,15,32,22.50
2013,08,17,15,33,17.70
2013,08,17,15,34,9.60
2013,08,17,15,35,14.50
2013,08,17,15,36,11.30
2013,08,17,15,37,17.70
2013,08,17,15,38,17.70
2013,08,17,15,39,6.40
2013,08,17,15,40,3.20
2013,08,17,15,41,1.60
2013,08,17,15,42,3.20
2013,08,17,15,43,3.20
2013,08,17,15,44,1.60
2013,08,17,15,45,3.20
2013,08,17,15,46,3.20
2013,08,17,15,47,1.60
2013,08,17,15,48,1.60
2013,08,17,15,49,1.60
2013,08,17,15,50,6.40
2013,08,17,15,51,1.60
2013,08,17,15,52,4.80
2013,08,17,15,53,9.60
2013,08,17,15,54,8.10
2013,08,17,15,55,4.80
2013,08,17,15,56,3.20
2013,08,17,15,57,3.20
2013,08,17,15,58,4.80
2013,08,17,15,59,6.40
2013,08,17,16,00,4.80
2013,08,17,16,01,4.80
2013,08,17,16,02,3.20
2013,08,17,16,03,3.20
2013,08,17,16,04,4.80
2013,08,17,16,05,3.20
2013,08,17,16,06,1.60
2013,08,17,16,07,1.60
2013,08,17,16,08,6.40
2013,08,17,16,09,6.40
2013,08,17,16,10,3.20
2013,08,17,16,11,4.80
2013,08,17,16,12,4.80
2013,08,17,16,13,8.10
2013,08,17,16,14,9.60
2013,08,17,16,15,8.10
2013,08,17,16,16,6.40
2013,08,17,16,17,4.80
2013,08,17,16,18,4.80
2013,08,17,16,19,3.20
2013,08,17,16,20,1.60
2013,08,17,16,21,4.80
2013,08,17,16,22,3.20
2013,08,17,16,23,3.20
2013,08,17,16,24,3.20
2013,08,17,16,25,6.40
2013,08,17,16,26,3.20
2013,08,17,16,27,4.80
2013,08,17,16,28,4.80
2013,08,17,16,29,4.80
2013,08,17,16,30,4.80
2013,08,17,16,31,4.80
2013,08,17,16,32,3.20
2013,08,17,16,33,3.20
2013,08,17,16,34,3.20
2013,08,17,16,35,1.60
2013,08,17,16,36,3.20
2013,08,17,16,37,1.60
2013,08,17,16,38,3.20
2013,08,17,16,39,1.60
2013,08,17,16,40,4.80
2013,08,17,16,41,4.80
2013,08,17,16,42,4.80
2013,08,17,16,43,1.60
2013,08,17,16,44,1.60
2013,08,17,16,45,4.80
2013,08,17,16,46,1.60
2013,08,17,16,47,1.60
2013,08,17,16,48,1.60
2013,08,17,16,49,1.60
2013,08,17,16,50,1.60
2013,08,17,16,51,1.60
2013,08,17,16,52,1.60
2013,08,17,16,53,3.20
2013,08,17,16,54,1.60
2013,08,17,16,55,1.60
2013,08,17,16,57,1.60
2013,08,17,16,58,1.60
2013,08,17,16,59,1.60
2013,08,17,17,00,1.60
2013,08,17,17,01,3.20
2013,08,17,17,02,1.60
2013,08,17,17,03,1.60
2013,08,17,17,04,1.60
2013,08,17,17,05,3.20
2013,08,17,17,06,1.60
2013,08,17,17,07,1.60
2013,08,17,17,08,1.60
2013,08,17,17,09,3.20
2013,08,17,17,10,3.20
2013,08,17,17,11,3.20
2013,08,17,17,12,3.20
2013,08,17,17,13,1.60
2013,08,17,17,14,1.60
2013,08,17,17,15,1.60
2013,08,17,17,16,1.60
2013,08,17,17,19,1.60
2013,08,17,17,20,1.60
2013,08,17,17,21,1.60
2013,08,17,17,22,3.20
2013,08,17,17,23,3.20
2013,08,17,17,24,4.80
2013,08,17,17,25,4.80
2013,08,17,17,26,1.60
2013,08,17,17,27,1.60
2013,08,17,17,28,1.60
2013,08,17,17,29,1.60
2013,08,17,17,30,3.20
2013,08,17,17,31,3.20
2013,08,17,17,32,4.80
2013,08,17,17,33,3.20
2013,08,17,17,34,1.60
2013,08,17,17,36,1.60
2013,08,17,17,37,1.60
2013,08,17,17,38,3.20
2013,08,17,17,39,3.20
2013,08,17,17,40,3.20
2013,08,17,17,41,3.20
2013,08,17,17,42,3.20
2013,08,17,17,43,3.20
2013,08,17,17,44,1.60
2013,08,17,17,46,1.60
2013,08,17,17,49,1.60
2013,08,17,17,50,1.60
2013,08,17,17,51,1.60
2013,08,17,17,52,1.60
2013,08,17,17,54,1.60
2013,08,17,17,55,1.60
2013,08,17,17,56,1.60
2013,08,17,17,58,1.60
2013,08,17,18,00,1.60
2013,08,17,18,02,1.60
2013,08,17,18,03,1.60
2013,08,17,18,05,1.60
2013,08,17,18,06,1.60
2013,08,17,18,07,1.60
2013,08,17,18,08,1.60
2013,08,17,18,09,1.60
2013,08,17,18,10,1.60
2013,08,17,18,11,1.60
2013,08,17,18,12,1.60
2013,08,17,18,14,1.60
2013,08,17,18,15,1.60
2013,08,17,18,16,1.60
2013,08,17,18,17,1.60
2013,08,17,18,18,1.60
2013,08,17,18,19,1.60
2013,08,17,18,20,1.60
2013,08,17,18,21,1.60
2013,08,17,18,22,1.60
2013,08,17,18,23,1.60
2013,08,17,18,24,1.60
2013,08,17,18,25,1.60
2013,08,17,18,26,1.60
2013,08,17,18,27,1.60
2013,08,17,18,28,1.60
2013,08,17,18,29,1.60
2013,08,17,18,30,3.20
2013,08,17,18,31,1.60
2013,08,17,18,34,1.60
2013,08,17,18,36,1.60
2013,08,17,18,37,1.60
2013,08,17,18,38,1.60
2013,08,17,18,39,1.60
2013,08,17,18,40,3.20
2013,08,17,18,41,1.60
2013,08,17,18,42,1.60
2013,08,17,18,47,1.60
2013,08,17,18,48,1.60
2013,08,17,18,51,1.60
2013,08,17,18,52,1.60
2013,08,17,18,53,1.60
2013,08,17,18,54,1.60
2013,08,17,18,55,1.60
2013,08,17,18,56,1.60
2013,08,17,18,58,1.60
2013,08,17,18,59,1.60
2013,08,17,19,00,1.60
2013,08,17,19,04,1.60
2013,08,17,19,06,1.60
2013,08,17,19,07,1.60
2013,08,17,19,09,1.60
2013,08,17,19,10,1.60
2013,08,17,19,13,1.60
2013,08,17,19,15,1.60
2013,08,17,19,16,1.60
2013,08,17,19,17,3.20
2013,08,17,19,19,1.60
2013,08,17,19,20,1.60
2013,08,17,19,21,1.60
2013,08,17,19,23,1.60
2013,08,17,19,25,1.60
2013,08,17,19,26,1.60
2013,08,17,19,27,1.60
2013,08,17,19,28,1.60
2013,08,17,19,29,1.60
2013,08,17,19,30,1.60
2013,08,17,19,34,1.60
2013,08,17,19,42,1.60